| time (UTC) | temp F | wind direction | speed MPH | gust MPH | rain 1hr in | rain 24hr in | rain mn in | humidity % | barometer mb |
| 20260506182734 | 59 | 295 | 0.0 | 0.0 | 0.06 | 0.07 | 0.07 | 62 | 1007.4 |
| 20260506182232 | 59 | 163 | 0.0 | 0.0 | 0.07 | 0.07 | 0.07 | 64 | 1007.5 |
| 20260506181731 | 60 | 205 | 0.0 | 0.0 | 0.07 | 0.07 | 0.07 | 65 | 1007.3 |
| 20260506181232 | 60 | 55 | 0.0 | 0.0 | 0.07 | 0.07 | 0.07 | 68 | 1007.3 |
| 20260506180732 | 60 | 157 | 0.0 | 0.0 | 0.06 | 0.06 | 0.06 | 71 | 1007.3 |
| 20260506180228 | 60 | 130 | 0.0 | 0.0 | 0.06 | 0.06 | 0.06 | 74 | 1007.4 |
| 20260506180000 | 60 | 138 | 0.0 | 0.0 | 0.05 | 0.05 | 0.06 | 78 | 1007.5 |
| 20260506175229 | 60 | 140 | 0.0 | 0.0 | 0.05 | 0.05 | 0.05 | 80 | 1007.7 |
| 20260506175000 | 60 | 207 | 0.0 | 0.0 | 0.04 | 0.04 | 0.04 | 81 | 1007.8 |
| 20260506174229 | 61 | 236 | 0.0 | 0.0 | 0.04 | 0.04 | 0.04 | 83 | 1008.0 |
| 20260506174000 | 61 | 93 | 0.0 | 0.0 | 0.03 | 0.03 | 0.03 | 85 | 1008.1 |
| 20260506173224 | 62 | 213 | 0.0 | 0.0 | 0.02 | 0.02 | 0.02 | 85 | 1008.1 |
| 20260506172725 | 62 | 141 | 0.0 | 2.0 | 0.01 | 0.01 | 0.01 | 84 | 1008.3 |
| 20260506172225 | 63 | 217 | 0.0 | 2.0 | 0.00 | 0.00 | 0.00 | 83 | 1008.4 |
| 20260506171726 | 64 | 277 | 0.0 | 0.0 | 0.00 | 0.00 | 0.00 | 81 | 1008.5 |
| 20260506171225 | 64 | 278 | 0.0 | 0.0 | 0.00 | 0.00 | 0.00 | 79 | 1008.5 |
| 20260506170727 | 65 | 212 | 0.0 | 0.0 | 0.00 | 0.00 | 0.00 | 77 | 1008.6 |
| 20260506170220 | 65 | 232 | 0.0 | 0.0 | 0.00 | 0.00 | 0.00 | 76 | 1008.6 |
| 20260506165721 | 65 | 296 | 0.0 | 0.0 | 0.00 | 0.00 | 0.00 | 75 | 1008.7 |
| 20260506165220 | 66 | 353 | 0.0 | 0.0 | 0.00 | 0.00 | 0.00 | 73 | 1008.6 |
| 20260506164722 | 67 | 178 | 0.0 | 0.0 | 0.00 | 0.00 | 0.00 | 72 | 1008.6 |
| 20260506164222 | 67 | 198 | 0.0 | 0.0 | 0.00 | 0.00 | 0.00 | 71 | 1008.6 |
| 20260506163723 | 67 | 238 | 0.0 | 0.0 | 0.00 | 0.00 | 0.00 | 71 | 1008.5 |
| 20260506163216 | 68 | 107 | 0.0 | 0.0 | 0.00 | 0.00 | 0.00 | 71 | 1008.4 |
| 20260506162716 | 67 | 162 | 0.0 | 0.0 | 0.00 | 0.00 | 0.00 | 72 | 1008.5 |
| 20260506162218 | 67 | 297 | 0.0 | 1.0 | 0.00 | 0.00 | 0.00 | 72 | 1008.3 |
| 20260506161948 | 67 | 127 | 0.0 | 1.0 | 0.00 | 0.00 | 0.00 | 72 | 1008.4 |
| 20260506161449 | 67 | 261 | 0.0 | 0.0 | 0.00 | 0.00 | 0.00 | 72 | 1008.6 |
| 20260506160718 | 67 | 267 | 0.0 | 1.0 | 0.00 | 0.00 | 0.00 | 72 | 1008.7 |
| 20260506160218 | 67 | 160 | 0.0 | 1.0 | 0.00 | 0.00 | 0.00 | 72 | 1008.7 |
| 20260506155716 | 67 | 131 | 0.0 | 0.0 | 0.00 | 0.00 | 0.00 | 72 | 1008.9 |
| 20260506155215 | 67 | 267 | 0.0 | 0.0 | 0.00 | 0.00 | 0.00 | 72 | 1008.9 |
| 20260506154714 | 67 | 181 | 0.0 | 0.0 | 0.00 | 0.00 | 0.00 | 71 | 1009.0 |
| 20260506154214 | 67 | 205 | 0.0 | 0.0 | 0.00 | 0.00 | 0.00 | 70 | 1009.0 |
| 20260506153706 | 68 | 274 | 0.0 | 0.0 | 0.00 | 0.00 | 0.00 | 70 | 1008.8 |
| 20260506153205 | 68 | 279 | 0.0 | 0.0 | 0.00 | 0.00 | 0.00 | 70 | 1008.8 |
| 20260506152705 | 68 | 13 | 0.0 | 0.0 | 0.00 | 0.00 | 0.00 | 69 | 1008.7 |
| 20260506152203 | 68 | 144 | 0.0 | 0.0 | 0.00 | 0.00 | 0.00 | 68 | 1008.7 |
| 20260506151703 | 69 | 271 | 0.0 | 0.0 | 0.00 | 0.00 | 0.00 | 67 | 1008.5 |
| 20260506151204 | 69 | 249 | 0.0 | 1.0 | 0.00 | 0.00 | 0.00 | 68 | 1008.6 |
| 20260506150934 | 69 | 166 | 0.0 | 1.0 | 0.00 | 0.00 | 0.00 | 68 | 1008.7 |
| 20260506150204 | 69 | 264 | 0.0 | 0.0 | 0.00 | 0.00 | 0.00 | 68 | 1008.7 |
| 20260506145701 | 69 | 228 | 0.0 | 0.0 | 0.00 | 0.00 | 0.00 | 69 | 1008.9 |
| 20260506145201 | 68 | 238 | 0.0 | 0.0 | 0.00 | 0.00 | 0.00 | 70 | 1008.9 |
| 20260506144701 | 68 | 266 | 0.0 | 0.0 | 0.00 | 0.00 | 0.00 | 69 | 1009.0 |
| 20260506144432 | 69 | 150 | 0.0 | 0.0 | 0.00 | 0.00 | 0.00 | 68 | 1009.0 |
| 20260506143659 | 69 | 278 | 0.0 | 0.0 | 0.00 | 0.00 | 0.00 | 68 | 1008.9 |
| 20260506143429 | 69 | 283 | 0.0 | 0.0 | 0.00 | 0.00 | 0.00 | 68 | 1009.1 |
| 20260506142930 | 69 | 298 | 0.0 | 0.0 | 0.00 | 0.00 | 0.00 | 69 | 1009.1 |
| 20260506142815 | 68 | 274 | 0.0 | 4.0 | 0.00 | 0.00 | 0.00 | 71 | 1008.9 |
| 20260506141657 | 68 | 297 | 0.0 | 4.0 | 0.00 | 0.00 | 0.00 | 71 | 1009.0 |
| 20260506141157 | 67 | 192 | 0.0 | 0.0 | 0.00 | 0.00 | 0.00 | 72 | 1009.1 |
| 20260506140654 | 67 | 240 | 0.0 | 1.0 | 0.00 | 0.00 | 0.00 | 72 | 1009.2 |
| 20260506140157 | 67 | 271 | 0.0 | 1.0 | 0.00 | 0.00 | 0.00 | 72 | 1009.3 |
| 20260506135655 | 67 | 131 | 0.0 | 1.0 | 0.00 | 0.00 | 0.00 | 73 | 1008.9 |
| 20260506135154 | 67 | 214 | 0.0 | 1.0 | 0.00 | 0.00 | 0.00 | 73 | 1009.0 |
| 20260506134654 | 66 | 70 | 0.0 | 1.0 | 0.00 | 0.00 | 0.00 | 74 | 1008.8 |
| 20260506134155 | 66 | 281 | 0.0 | 1.0 | 0.00 | 0.00 | 0.00 | 75 | 1008.9 |
| 20260506133926 | 66 | 259 | 0.0 | 2.0 | 0.00 | 0.00 | 0.00 | 75 | 1008.8 |
| 20260506133153 | 65 | 229 | 0.0 | 2.0 | 0.00 | 0.00 | 0.00 | 76 | 1008.9 |
| 20260506132653 | 65 | 281 | 0.0 | 1.0 | 0.00 | 0.00 | 0.00 | 77 | 1008.9 |
| 20260506132152 | 65 | 279 | 0.0 | 0.0 | 0.00 | 0.00 | 0.00 | 77 | 1009.0 |
| 20260506131652 | 65 | 194 | 0.0 | 5.0 | 0.00 | 0.00 | 0.00 | 77 | 1009.0 |
| 20260506131152 | 65 | 72 | 0.0 | 5.0 | 0.00 | 0.00 | 0.00 | 78 | 1008.9 |
| 20260506130654 | 64 | 275 | 0.0 | 2.0 | 0.00 | 0.00 | 0.00 | 79 | 1009.1 |
| 20260506130154 | 64 | 166 | 0.0 | 3.0 | 0.00 | 0.00 | 0.00 | 79 | 1009.3 |
| 20260506125646 | 64 | 55 | 0.0 | 4.0 | 0.00 | 0.00 | 0.00 | 79 | 1009.3 |
| 20260506125146 | 64 | 274 | 0.0 | 4.0 | 0.00 | 0.00 | 0.00 | 80 | 1009.4 |
| 20260506124646 | 64 | 288 | 0.0 | 2.0 | 0.00 | 0.00 | 0.00 | 80 | 1009.7 |
| 20260506124147 | 63 | 30 | 0.0 | 3.0 | 0.00 | 0.00 | 0.00 | 80 | 1009.7 |
| 20260506123919 | 63 | 256 | 0.0 | 3.0 | 0.00 | 0.00 | 0.00 | 81 | 1009.7 |
| 20260506123147 | 63 | 181 | 0.0 | 0.0 | 0.00 | 0.00 | 0.00 | 82 | 1009.7 |
| 20260506122642 | 62 | 258 | 0.0 | 4.0 | 0.00 | 0.00 | 0.00 | 83 | 1009.6 |
| 20260506122142 | 62 | 248 | 0.0 | 4.0 | 0.00 | 0.00 | 0.00 | 83 | 1009.6 |
| 20260506121640 | 62 | 192 | 0.0 | 2.0 | 0.00 | 0.00 | 0.00 | 83 | 1009.7 |
| 20260506121142 | 61 | 271 | 0.0 | 2.0 | 0.00 | 0.00 | 0.00 | 84 | 1009.6 |
| 20260506120910 | 61 | 290 | 0.0 | 0.0 | 0.00 | 0.00 | 0.00 | 84 | 1009.6 |
| 20260506120138 | 61 | 262 | 0.0 | 0.0 | 0.00 | 0.00 | 0.00 | 84 | 1009.8 |
| 20260506115633 | 61 | 93 | 0.0 | 0.0 | 0.00 | 0.00 | 0.00 | 84 | 1009.6 |
| 20260506115133 | 61 | 219 | 0.0 | 0.0 | 0.00 | 0.00 | 0.00 | 84 | 1009.6 |
| 20260506114630 | 61 | 276 | 0.0 | 1.0 | 0.00 | 0.00 | 0.00 | 85 | 1009.6 |
| 20260506114358 | 60 | 304 | 0.0 | 1.0 | 0.00 | 0.00 | 0.00 | 85 | 1009.6 |
| 20260506113627 | 60 | 262 | 0.0 | 1.0 | 0.00 | 0.00 | 0.00 | 85 | 1009.5 |
| 20260506113122 | 60 | 305 | 0.0 | 3.0 | 0.00 | 0.00 | 0.00 | 85 | 1009.3 |
| 20260506112623 | 60 | 215 | 0.0 | 3.0 | 0.00 | 0.00 | 0.00 | 85 | 1009.5 |
| 20260506112122 | 60 | 206 | 0.0 | 0.0 | 0.00 | 0.00 | 0.00 | 85 | 1009.8 |
| 20260506111854 | 60 | 300 | 0.0 | 0.0 | 0.00 | 0.00 | 0.00 | 85 | 1009.9 |
| 20260506111121 | 59 | 153 | 0.0 | 0.0 | 0.00 | 0.00 | 0.00 | 85 | 1009.9 |
| 20260506110621 | 59 | 258 | 0.0 | 0.0 | 0.00 | 0.00 | 0.00 | 84 | 1009.8 |
| 20260506110119 | 58 | 283 | 0.0 | 0.0 | 0.00 | 0.00 | 0.00 | 84 | 1009.9 |
| 20260506105619 | 58 | 314 | 0.0 | 1.0 | 0.00 | 0.00 | 0.00 | 84 | 1009.8 |
| 20260506105120 | 58 | 210 | 0.0 | 1.0 | 0.00 | 0.00 | 0.00 | 84 | 1009.7 |
| 20260506104616 | 58 | 248 | 0.0 | 1.0 | 0.00 | 0.00 | 0.00 | 84 | 1009.8 |
| 20260506104116 | 58 | 25 | 0.0 | 1.0 | 0.00 | 0.00 | 0.00 | 84 | 1009.7 |
| 20260506103614 | 58 | 219 | 0.0 | 1.0 | 0.00 | 0.00 | 0.00 | 83 | 1009.7 |
| 20260506103113 | 58 | 216 | 0.0 | 1.0 | 0.00 | 0.00 | 0.00 | 84 | 1009.6 |
| 20260506102611 | 57 | 68 | 0.0 | 4.0 | 0.00 | 0.00 | 0.00 | 84 | 1009.5 |
| 20260506102109 | 57 | 198 | 0.0 | 4.0 | 0.00 | 0.00 | 0.00 | 84 | 1009.6 |
| 20260506101609 | 57 | 281 | 0.0 | 0.0 | 0.00 | 0.00 | 0.00 | 84 | 1009.7 |
| 20260506101109 | 57 | 264 | 0.0 | 0.0 | 0.00 | 0.00 | 0.00 | 85 | 1009.6 |
| 20260506100840 | 57 | 264 | 0.0 | 0.0 | 0.00 | 0.00 | 0.00 | 85 | 1009.6 |
| 20260506100105 | 57 | 254 | 0.0 | 0.0 | 0.00 | 0.00 | 0.00 | 85 | 1009.5 |
| 20260506095836 | 58 | 155 | 0.0 | 0.0 | 0.00 | 0.00 | 0.00 | 85 | 1009.6 |
| 20260506095102 | 58 | 283 | 0.0 | 0.0 | 0.00 | 0.00 | 0.00 | 85 | 1009.5 |
| 20260506094608 | 58 | 163 | 0.0 | 2.0 | 0.00 | 0.00 | 0.00 | 85 | 1009.4 |
| 20260506094603 | 58 | 107 | 0.0 | 2.0 | 0.00 | 0.00 | 0.00 | 85 | 1009.5 |
| 20260506093603 | 58 | 208 | 0.0 | 0.0 | 0.00 | 0.00 | 0.00 | 85 | 1009.5 |
| 20260506093101 | 58 | 200 | 0.0 | 0.0 | 0.00 | 0.00 | 0.00 | 85 | 1009.7 |
| 20260506092601 | 58 | 148 | 0.0 | 0.0 | 0.00 | 0.00 | 0.00 | 85 | 1009.6 |
| 20260506092332 | 58 | 178 | 0.0 | 0.0 | 0.00 | 0.00 | 0.00 | 85 | 1009.6 |
| 20260506091830 | 58 | 201 | 0.0 | 0.0 | 0.00 | 0.00 | 0.00 | 85 | 1009.6 |
| 20260506091331 | 58 | 260 | 0.0 | 0.0 | 0.00 | 0.00 | 0.00 | 85 | 1009.6 |
| 20260506090600 | 58 | 213 | 0.0 | 0.0 | 0.00 | 0.00 | 0.00 | 85 | 1009.6 |
| 20260506090056 | 58 | 244 | 0.0 | 0.0 | 0.00 | 0.00 | 0.00 | 85 | 1009.7 |
| 20260506085557 | 58 | 233 | 0.0 | 0.0 | 0.00 | 0.00 | 0.00 | 85 | 1009.6 |
| 20260506085055 | 58 | 347 | 0.0 | 0.0 | 0.00 | 0.00 | 0.00 | 85 | 1009.6 |
| 20260506084552 | 58 | 216 | 0.0 | 0.0 | 0.00 | 0.00 | 0.00 | 85 | 1009.7 |
| 20260506084325 | 58 | 216 | 0.0 | 0.0 | 0.00 | 0.00 | 0.00 | 85 | 1009.8 |
| 20260506083551 | 58 | 158 | 0.0 | 0.0 | 0.00 | 0.00 | 0.00 | 85 | 1009.7 |
| 20260506083049 | 58 | 232 | 0.0 | 0.0 | 0.00 | 0.00 | 0.00 | 85 | 1009.7 |
| 20260506082549 | 58 | 203 | 0.0 | 0.0 | 0.00 | 0.00 | 0.00 | 85 | 1009.7 |
| 20260506082047 | 58 | 176 | 0.0 | 0.0 | 0.00 | 0.00 | 0.00 | 85 | 1009.6 |
| 20260506081543 | 58 | 207 | 0.0 | 0.0 | 0.00 | 0.00 | 0.00 | 85 | 1009.6 |
| 20260506081042 | 58 | 222 | 0.0 | 0.0 | 0.00 | 0.00 | 0.00 | 85 | 1009.7 |
| 20260506080542 | 59 | 210 | 0.0 | 0.0 | 0.00 | 0.00 | 0.00 | 85 | 1009.7 |
| 20260506080314 | 59 | 169 | 0.0 | 0.0 | 0.00 | 0.00 | 0.00 | 85 | 1009.7 |
| 20260506073028 | 59 | 229 | 0.0 | 0.0 | 0.00 | 0.00 | 0.00 | 84 | 1009.7 |
| 20260506072529 | 59 | 70 | 0.0 | 0.0 | 0.00 | 0.00 | 0.00 | 84 | 1009.7 |
| 20260506072027 | 59 | 243 | 0.0 | 0.0 | 0.00 | 0.00 | 0.00 | 84 | 1009.8 |
| 20260506071525 | 59 | 240 | 0.0 | 0.0 | 0.00 | 0.00 | 0.00 | 84 | 1009.8 |
| 20260506071259 | 59 | 231 | 0.0 | 0.0 | 0.00 | 0.00 | 0.00 | 84 | 1009.8 |
| 20260506070758 | 59 | 177 | 0.0 | 0.0 | 0.00 | 0.00 | 0.00 | 83 | 1009.8 |
| 20260506062023 | 60 | 79 | 0.0 | 1.0 | 0.00 | 0.00 | 0.00 | 82 | 1009.7 |
| 20260506061522 | 60 | 237 | 0.0 | 1.0 | 0.00 | 0.00 | 0.00 | 82 | 1009.7 |
| 20260506061022 | 60 | 172 | 0.0 | 0.0 | 0.00 | 0.00 | 0.00 | 82 | 1009.6 |
| 20260506060524 | 60 | 236 | 0.0 | 0.0 | 0.00 | 0.00 | 0.00 | 82 | 1009.6 |
| 20260506051243 | 61 | 110 | 0.0 | 0.0 | 0.00 | 0.00 | 0.00 | 79 | 1010.1 |
| 20260506050504 | 61 | 243 | 0.0 | 0.0 | 0.00 | 0.00 | 0.00 | 79 | 1010.3 |
| 20260506045001 | 62 | 244 | 0.0 | 1.0 | 0.00 | 0.00 | 0.00 | 78 | 1010.2 |
| 20260506044726 | 62 | 170 | 0.0 | 3.0 | 0.00 | 0.00 | 0.00 | 78 | 1010.3 |
| 20260506044220 | 62 | 188 | 0.0 | 3.0 | 0.00 | 0.00 | 0.00 | 78 | 1010.1 |
| 20260506043450 | 62 | 180 | 0.0 | 1.0 | 0.00 | 0.00 | 0.00 | 78 | 1010.1 |
| 20260506042951 | 62 | 150 | 0.0 | 0.0 | 0.00 | 0.00 | 0.00 | 77 | 1010.1 |
| 20260506042450 | 62 | 269 | 0.0 | 0.0 | 0.00 | 0.00 | 0.00 | 77 | 1010.1 |
| 20260506042221 | 62 | 307 | 0.0 | 0.0 | 0.00 | 0.00 | 0.00 | 77 | 1010.0 |
| 20260506041451 | 62 | 153 | 0.0 | 3.0 | 0.00 | 0.00 | 0.00 | 77 | 1010.1 |
| 20260506040946 | 62 | 260 | 0.0 | 3.0 | 0.00 | 0.00 | 0.00 | 77 | 1010.0 |
| 20260506040716 | 62 | 286 | 0.0 | 0.0 | 0.00 | 0.00 | 0.00 | 76 | 1010.2 |
| 20260506035948 | 62 | 234 | 0.0 | 0.0 | 0.00 | 0.00 | 0.00 | 76 | 1010.1 |
| 20260506035445 | 62 | 266 | 0.0 | 0.0 | 0.00 | 0.00 | 0.00 | 75 | 1010.2 |
| 20260506034945 | 62 | 295 | 0.0 | 0.0 | 0.00 | 0.00 | 0.00 | 75 | 1010.1 |
| 20260506034446 | 62 | 217 | 0.0 | 0.0 | 0.00 | 0.00 | 0.00 | 74 | 1010.2 |
| 20260506033943 | 62 | 269 | 0.0 | 0.0 | 0.00 | 0.00 | 0.00 | 74 | 1010.2 |
| 20260506033713 | 62 | 295 | 0.0 | 0.0 | 0.00 | 0.00 | 0.00 | 73 | 1010.2 |
| 20260506032943 | 63 | 205 | 0.0 | 0.0 | 0.00 | 0.00 | 0.00 | 73 | 1010.2 |
| 20260506032442 | 63 | 300 | 0.0 | 0.0 | 0.00 | 0.00 | 0.00 | 72 | 1010.2 |
| 20260506031942 | 63 | 169 | 0.0 | 0.0 | 0.00 | 0.00 | 0.00 | 72 | 1010.3 |
| 20260506031441 | 63 | 245 | 0.0 | 0.0 | 0.00 | 0.00 | 0.00 | 71 | 1010.2 |
| 20260506030938 | 63 | 307 | 0.0 | 1.0 | 0.00 | 0.00 | 0.00 | 71 | 1010.2 |
| 20260506030439 | 63 | 217 | 0.0 | 1.0 | 0.00 | 0.00 | 0.00 | 71 | 1010.1 |
| 20260506030210 | 63 | 219 | 0.0 | 1.0 | 0.00 | 0.00 | 0.00 | 71 | 1010.1 |
| 20260506025437 | 63 | 287 | 0.0 | 1.0 | 0.00 | 0.00 | 0.00 | 71 | 1010.0 |
| 20260506024935 | 63 | 240 | 0.0 | 0.0 | 0.00 | 0.00 | 0.00 | 71 | 1009.9 |
| 20260506024708 | 63 | 245 | 0.0 | 0.0 | 0.00 | 0.00 | 0.00 | 71 | 1010.0 |
| 20260506023934 | 63 | 174 | 0.0 | 3.0 | 0.00 | 0.00 | 0.00 | 71 | 1010.0 |
| 20260506023435 | 63 | 279 | 0.0 | 3.0 | 0.00 | 0.00 | 0.00 | 71 | 1010.0 |
| 20260506022932 | 63 | 252 | 0.0 | 0.0 | 0.00 | 0.00 | 0.00 | 71 | 1010.0 |
| 20260506022430 | 63 | 224 | 0.0 | 0.0 | 0.00 | 0.00 | 0.00 | 71 | 1009.9 |
| 20260506021930 | 63 | 234 | 0.0 | 0.0 | 0.00 | 0.00 | 0.00 | 70 | 1009.9 |
| 20260506021425 | 63 | 211 | 0.0 | 0.0 | 0.00 | 0.00 | 0.00 | 70 | 1010.0 |
| 20260506021153 | 63 | 275 | 0.0 | 0.0 | 0.00 | 0.00 | 0.00 | 70 | 1009.9 |
| 20260506020422 | 63 | 236 | 0.0 | 0.0 | 0.00 | 0.00 | 0.00 | 70 | 1010.0 |
| 20260506015920 | 63 | 266 | 0.0 | 0.0 | 0.00 | 0.00 | 0.00 | 70 | 1010.0 |
| 20260506015421 | 63 | 230 | 0.0 | 0.0 | 0.00 | 0.00 | 0.00 | 70 | 1009.9 |
| 20260506014921 | 63 | 290 | 0.0 | 0.0 | 0.00 | 0.00 | 0.00 | 70 | 1010.0 |
| 20260506014420 | 63 | 194 | 0.0 | 0.0 | 0.00 | 0.00 | 0.00 | 70 | 1009.8 |
| 20260506013920 | 63 | 235 | 0.0 | 0.0 | 0.00 | 0.00 | 0.00 | 69 | 1009.8 |
| 20260506013416 | 63 | 223 | 0.0 | 0.0 | 0.00 | 0.00 | 0.00 | 69 | 1009.7 |
| 20260506012914 | 63 | 104 | 0.0 | 0.0 | 0.00 | 0.00 | 0.00 | 69 | 1009.8 |
| 20260506012414 | 63 | 167 | 0.0 | 2.0 | 0.00 | 0.00 | 0.00 | 69 | 1009.6 |
| 20260506011914 | 63 | 212 | 0.0 | 2.0 | 0.00 | 0.00 | 0.00 | 68 | 1009.6 |
| 20260506011646 | 63 | 8 | 0.0 | 2.0 | 0.00 | 0.00 | 0.00 | 68 | 1009.4 |
| 20260506010912 | 63 | 257 | 0.0 | 2.0 | 0.00 | 0.00 | 0.00 | 68 | 1009.5 |
| 20260506010410 | 63 | 281 | 0.0 | 0.0 | 0.00 | 0.00 | 0.00 | 68 | 1009.5 |
| 20260506005909 | 63 | 298 | 0.0 | 2.0 | 0.00 | 0.00 | 0.00 | 67 | 1009.4 |
| 20260506005639 | 63 | 288 | 0.0 | 2.0 | 0.00 | 0.00 | 0.00 | 67 | 1009.3 |
| 20260506004908 | 64 | 287 | 0.0 | 1.0 | 0.00 | 0.00 | 0.00 | 67 | 1009.4 |
| 20260506004407 | 64 | 325 | 0.0 | 1.0 | 0.00 | 0.00 | 0.00 | 66 | 1009.3 |
| 20260506003904 | 64 | 260 | 0.0 | 0.0 | 0.00 | 0.00 | 0.00 | 66 | 1009.0 |
| 20260506003410 | 64 | 50 | 0.0 | 4.0 | 0.00 | 0.00 | 0.00 | 65 | 1008.9 |
| 20260506003403 | 64 | 230 | 0.0 | 4.0 | 0.00 | 0.00 | 0.00 | 65 | 1008.7 |
| 20260506002400 | 64 | 302 | 0.0 | 0.0 | 0.00 | 0.00 | 0.00 | 65 | 1008.7 |
| 20260506001901 | 65 | 294 | 0.0 | 0.0 | 0.00 | 0.00 | 0.00 | 64 | 1008.6 |
| 20260506001401 | 65 | 221 | 0.0 | 0.0 | 0.00 | 0.00 | 0.00 | 64 | 1008.6 |
| 20260506000858 | 65 | 151 | 0.0 | 0.0 | 0.00 | 0.00 | 0.00 | 64 | 1008.6 |
| 20260506000356 | 65 | 283 | 0.0 | 0.0 | 0.00 | 0.00 | 0.00 | 64 | 1008.6 |
| 20260505235853 | 65 | 179 | 0.0 | 1.0 | 0.00 | 0.00 | 0.00 | 64 | 1008.5 |
| 20260505235355 | 65 | 288 | 0.0 | 1.0 | 0.00 | 0.00 | 0.00 | 64 | 1008.4 |
| 20260505234855 | 66 | 146 | 0.0 | 0.0 | 0.00 | 0.00 | 0.00 | 64 | 1008.1 |
| 20260505234353 | 66 | 148 | 0.0 | 0.0 | 0.00 | 0.00 | 0.00 | 63 | 1008.1 |
| 20260505233852 | 66 | 122 | 0.0 | 0.0 | 0.00 | 0.00 | 0.00 | 63 | 1008.2 |
| 20260505233350 | 66 | 58 | 0.0 | 0.0 | 0.00 | 0.00 | 0.00 | 62 | 1008.2 |
| 20260505232846 | 67 | 231 | 0.0 | 0.0 | 0.00 | 0.00 | 0.00 | 62 | 1008.1 |
| 20260505232348 | 67 | 252 | 0.0 | 2.0 | 0.00 | 0.00 | 0.00 | 61 | 1008.0 |
| 20260505232120 | 67 | 243 | 0.0 | 2.0 | 0.00 | 0.00 | 0.00 | 61 | 1008.0 |
| 20260505231349 | 67 | 153 | 0.0 | 1.0 | 0.00 | 0.00 | 0.00 | 61 | 1007.9 |
| 20260505230847 | 68 | 274 | 0.0 | 2.0 | 0.00 | 0.00 | 0.00 | 60 | 1007.9 |
| 20260505230842 | 68 | 85 | 0.0 | 2.0 | 0.00 | 0.00 | 0.00 | 60 | 1007.9 |
| 20260505225840 | 68 | 117 | 0.0 | 0.0 | 0.00 | 0.00 | 0.00 | 59 | 1007.7 |
| 20260505225340 | 69 | 312 | 0.0 | 1.0 | 0.00 | 0.00 | 0.00 | 59 | 1007.7 |
| 20260505224841 | 69 | 224 | 0.0 | 2.0 | 0.00 | 0.00 | 0.00 | 59 | 1007.4 |
| 20260505224613 | 69 | 248 | 0.0 | 2.0 | 0.00 | 0.00 | 0.00 | 58 | 1007.3 |
| 20260505223834 | 69 | 136 | 0.0 | 2.0 | 0.00 | 0.00 | 0.00 | 58 | 1007.3 |
| 20260505223334 | 70 | 175 | 0.0 | 2.0 | 0.00 | 0.00 | 0.00 | 58 | 1007.4 |
| 20260505222835 | 70 | 124 | 0.0 | 2.0 | 0.00 | 0.00 | 0.00 | 57 | 1007.6 |
| 20260505222334 | 70 | 284 | 0.0 | 2.0 | 0.00 | 0.00 | 0.00 | 57 | 1007.8 |
| 20260505221835 | 70 | 91 | 0.0 | 0.0 | 0.00 | 0.00 | 0.00 | 56 | 1007.7 |
| 20260505221334 | 71 | 278 | 0.0 | 0.0 | 0.00 | 0.00 | 0.00 | 57 | 1007.6 |
| 20260505220831 | 71 | 291 | 0.0 | 0.0 | 0.00 | 0.00 | 0.00 | 55 | 1007.6 |
| 20260505220331 | 71 | 233 | 0.0 | 0.0 | 0.00 | 0.00 | 0.00 | 56 | 1007.6 |
| 20260505220104 | 71 | 201 | 0.0 | 0.0 | 0.00 | 0.00 | 0.00 | 55 | 1007.6 |
| 20260505215330 | 72 | 171 | 0.0 | 0.0 | 0.00 | 0.00 | 0.00 | 55 | 1007.6 |
| 20260505214828 | 72 | 242 | 0.0 | 4.0 | 0.00 | 0.00 | 0.00 | 54 | 1007.4 |
| 20260505214558 | 72 | 245 | 0.0 | 4.0 | 0.00 | 0.00 | 0.00 | 53 | 1007.5 |
| 20260505214058 | 73 | 146 | 0.0 | 0.0 | 0.00 | 0.00 | 0.00 | 53 | 1007.5 |
| 20260505213324 | 73 | 172 | 0.0 | 0.0 | 0.00 | 0.00 | 0.00 | 53 | 1007.3 |
| 20260505212821 | 73 | 213 | 0.0 | 6.0 | 0.00 | 0.00 | 0.00 | 53 | 1007.4 |
| 20260505212554 | 73 | 245 | 0.0 | 6.0 | 0.00 | 0.00 | 0.00 | 52 | 1007.3 |
| 20260505211822 | 74 | 240 | 0.0 | 0.0 | 0.00 | 0.00 | 0.00 | 51 | 1007.5 |
| 20260505211322 | 74 | 209 | 0.0 | 2.0 | 0.00 | 0.00 | 0.00 | 51 | 1007.4 |
| 20260505210815 | 74 | 203 | 0.0 | 2.0 | 0.00 | 0.00 | 0.00 | 51 | 1007.3 |
| 20260505210543 | 75 | 221 | 0.0 | 0.0 | 0.00 | 0.00 | 0.00 | 50 | 1007.4 |
| 20260505210043 | 75 | 251 | 0.0 | 0.0 | 0.00 | 0.00 | 0.00 | 50 | 1007.3 |
| 20260505205541 | 75 | 44 | 0.0 | 1.0 | 0.00 | 0.00 | 0.00 | 50 | 1007.2 |
| 20260505204810 | 75 | 297 | 0.0 | 2.0 | 0.00 | 0.00 | 0.00 | 49 | 1007.3 |
| 20260505204534 | 76 | 249 | 0.0 | 2.0 | 0.00 | 0.00 | 0.00 | 48 | 1007.1 |
| 20260505203800 | 76 | 229 | 0.0 | 5.0 | 0.00 | 0.03 | 0.00 | 48 | 1007.2 |
| 20260505203302 | 77 | 285 | 0.0 | 6.0 | 0.00 | 0.03 | 0.00 | 47 | 1007.3 |
| 20260505203031 | 77 | 202 | 0.0 | 6.0 | 0.00 | 0.03 | 0.00 | 48 | 1007.3 |
| 20260505202300 | 77 | 204 | 0.0 | 0.0 | 0.00 | 0.03 | 0.00 | 47 | 1007.3 |
| 20260505201802 | 77 | 46 | 0.0 | 0.0 | 0.00 | 0.03 | 0.00 | 48 | 1007.4 |
| 20260505201303 | 78 | 214 | 0.0 | 1.0 | 0.00 | 0.03 | 0.00 | 47 | 1007.4 |
| 20260505200759 | 78 | 167 | 0.0 | 1.0 | 0.00 | 0.03 | 0.00 | 46 | 1007.5 |
| 20260505200257 | 78 | 134 | 0.0 | 0.0 | 0.00 | 0.03 | 0.00 | 47 | 1007.6 |
| 20260505195756 | 78 | 292 | 0.0 | 0.0 | 0.00 | 0.03 | 0.00 | 46 | 1007.3 |
| 20260505195256 | 78 | 248 | 0.0 | 0.0 | 0.00 | 0.03 | 0.00 | 47 | 1007.3 |
| 20260505194753 | 78 | 170 | 0.0 | 1.0 | 0.00 | 0.03 | 0.00 | 46 | 1007.4 |
| 20260505194254 | 78 | 295 | 0.0 | 1.0 | 0.00 | 0.03 | 0.00 | 45 | 1007.5 |
| 20260505193754 | 79 | 255 | 0.0 | 1.0 | 0.00 | 0.03 | 0.00 | 46 | 1007.5 |
| 20260505193250 | 78 | 339 | 0.0 | 1.0 | 0.00 | 0.03 | 0.00 | 46 | 1007.6 |
| 20260505192750 | 78 | 182 | 0.0 | 0.0 | 0.00 | 0.03 | 0.00 | 46 | 1007.7 |
| 20260505192250 | 78 | 257 | 0.0 | 0.0 | 0.00 | 0.03 | 0.00 | 46 | 1007.7 |
| 20260505191750 | 79 | 251 | 0.0 | 1.0 | 0.00 | 0.03 | 0.00 | 45 | 1007.8 |
| 20260505191250 | 79 | 70 | 0.0 | 3.0 | 0.00 | 0.03 | 0.00 | 44 | 1007.8 |
| 20260505190747 | 79 | 146 | 0.0 | 3.0 | 0.00 | 0.03 | 0.00 | 44 | 1007.8 |
| 20260505190249 | 79 | 264 | 0.0 | 3.0 | 0.00 | 0.03 | 0.00 | 44 | 1007.8 |
| 20260505185747 | 80 | 284 | 0.0 | 1.0 | 0.00 | 0.03 | 0.00 | 43 | 1007.8 |
| 20260505185246 | 80 | 136 | 0.0 | 1.0 | 0.00 | 0.03 | 0.00 | 43 | 1007.9 |
| 20260505184748 | 80 | 264 | 0.0 | 1.0 | 0.00 | 0.03 | 0.00 | 43 | 1007.9 |
| 20260505184244 | 80 | 278 | 0.0 | 1.0 | 0.00 | 0.03 | 0.00 | 43 | 1007.9 |
| 20260505183742 | 80 | 252 | 0.0 | 0.0 | 0.00 | 0.03 | 0.00 | 43 | 1007.9 |
| 20260505183244 | 80 | 152 | 0.0 | 3.0 | 0.00 | 0.03 | 0.00 | 42 | 1007.9 |